Northsea Beta — 9HA2594 — position and weather

sailwx.info

Track history (hours):
 
Tides and Currents Weather Stations Pressure Air Temp Water Temp Dewpoint Dewpoint Depression Visibility Wind Speed Wind Dir Waves Ship Positions

Northsea Beta

Last reported at 2014-Oct-25 00:24 UTC. Time now 2014-Oct-25 00:48 UTC.
Position N 51°53' E 004°16'.

Length 110 m; draft 5.2 m.

Type: Tanker. MMSI: 248970000.

Date/timePositionNaut miles runAvg speedWind from/ knotsBaromVisibWave heightAir tempDewpointWater temp
2014-Oct-25 00:24N 51°53' E 004°16'0 0.0
2014-Oct-24 23:34N 51°53' E 004°16'0 0.4
2014-Oct-24 22:34N 51°53' E 004°17'5 5.4
2014-Oct-24 21:33N 51°57' E 004°10'9 9.1
2014-Oct-24 20:33N 52°00' E 003°57'8 8.2
2014-Oct-24 19:32N 52°05' E 003°46'1211.2
2014-Oct-24 18:30N 52°17' E 003°47'34 8.7
2014-Oct-24 14:33N 52°43' E 004°23'14 9.5
2014-Oct-24 13:07N 52°54' E 004°38'610.0
2014-Oct-24 12:33N 52°58' E 004°43'5 2.6
2014-Oct-24 10:31N 53°01' E 004°50'0 0.1
2014-Oct-24 09:31N 53°01' E 004°50'0 0.1
2014-Oct-24 08:31N 53°01' E 004°50'0 0.0
2014-Oct-24 07:31N 53°01' E 004°50'0 0.0
2014-Oct-24 06:22N 53°01' E 004°50'0 0.0
2014-Oct-24 05:25N 53°01' E 004°50'0 0.0
2014-Oct-24 04:25N 53°01' E 004°50'0 0.0
2014-Oct-24 03:25N 53°01' E 004°50'0 0.0
2014-Oct-24 02:25N 53°01' E 004°50'0 0.1
2014-Oct-24 01:25N 53°01' E 004°50'0 0.0
2014-Oct-24 00:28N 53°01' E 004°50'0 0.0
2014-Oct-23 23:28N 53°01' E 004°50'0 0.0
2014-Oct-23 22:16N 53°01' E 004°50'0 0.1
2014-Oct-23 21:31N 53°01' E 004°50'0 0.1
2014-Oct-23 20:28N 53°01' E 004°50'0 0.0
2014-Oct-23 19:31N 53°01' E 004°50'0 0.0
2014-Oct-23 18:31N 53°01' E 004°50'0 0.0
2014-Oct-23 17:31N 53°01' E 004°50'0 0.0
2014-Oct-23 16:31N 53°01' E 004°50'0 0.0
2014-Oct-23 15:22N 53°01' E 004°50'0 0.0
2014-Oct-23 14:22N 53°01' E 004°50'0 0.1
2014-Oct-23 11:13N 53°01' E 004°50'0 0.1
2014-Oct-23 08:28N 53°01' E 004°50'0 0.0
2014-Oct-23 07:31N 53°01' E 004°50'0 0.0
2014-Oct-23 06:28N 53°01' E 004°50'0 0.0
2014-Oct-23 05:31N 53°01' E 004°50'0 0.0
2014-Oct-23 04:31N 53°01' E 004°50'0 0.0
2014-Oct-23 03:31N 53°01' E 004°50'0 0.0
2014-Oct-23 02:31N 53°01' E 004°50'0 0.1
2014-Oct-23 01:19N 53°01' E 004°50'0 0.0
2014-Oct-23 00:22N 53°01' E 004°50'0 0.0
2014-Oct-22 23:22N 53°01' E 004°50'0 0.0
2014-Oct-22 21:28N 53°01' E 004°50'0 0.0
2014-Oct-22 20:28N 53°01' E 004°50'0 0.0
2014-Oct-22 19:28N 53°01' E 004°50'0 0.1
2014-Oct-22 18:31N 53°01' E 004°50'0 0.1
2014-Oct-22 17:28N 53°01' E 004°50'0 0.0
2014-Oct-22 16:31N 53°01' E 004°50'0 0.0
2014-Oct-22 15:31N 53°01' E 004°50'0 0.1
2014-Oct-22 14:28N 53°01' E 004°50'0 0.1
2014-Oct-22 13:04N 53°01' E 004°50'0 0.0
2014-Oct-22 12:31N 53°01' E 004°50'0 0.0
2014-Oct-22 11:31N 53°01' E 004°50'0 0.0
2014-Oct-22 10:22N 53°01' E 004°50'0 0.0
2014-Oct-22 09:22N 53°01' E 004°50'0 0.0
2014-Oct-22 08:25N 53°01' E 004°50'0 0.0
2014-Oct-22 07:25N 53°01' E 004°50'0 0.1
2014-Oct-22 06:25N 53°01' E 004°50'0 0.1
2014-Oct-22 05:25N 53°01' E 004°50'0 0.0
2014-Oct-22 04:28N 53°01' E 004°50'0 0.0
2014-Oct-22 03:31N 53°01' E 004°50'0 0.0
2014-Oct-22 02:31N 53°01' E 004°50'0 0.1
2014-Oct-22 01:31N 53°01' E 004°50'0 0.0
2014-Oct-22 00:28N 53°01' E 004°50'0 0.0
2014-Oct-21 23:31N 53°01' E 004°50'0 0.0
2014-Oct-21 22:31N 53°01' E 004°50'0 0.0
2014-Oct-21 21:31N 53°01' E 004°50'0 0.0
2014-Oct-21 20:22N 53°01' E 004°50'0 0.0
2014-Oct-21 19:25N 53°01' E 004°50'0 0.0
2014-Oct-21 18:25N 53°01' E 004°50'0 0.1
2014-Oct-21 17:25N 53°01' E 004°50'0 0.0
2014-Oct-21 16:28N 53°01' E 004°50'0 0.0
2014-Oct-21 15:28N 53°01' E 004°50'0 0.0
2014-Oct-21 14:28N 53°01' E 004°50'0 0.0
2014-Oct-21 13:31N 53°01' E 004°50'0 0.0
2014-Oct-21 12:31N 53°01' E 004°50'0 0.0
2014-Oct-21 11:31N 53°01' E 004°50'0 0.1
2014-Oct-21 10:13N 53°01' E 004°50'0 0.0
2014-Oct-21 09:31N 53°01' E 004°50'0 0.1
2014-Oct-21 08:16N 53°01' E 004°50'0 0.1
2014-Oct-21 07:31N 53°01' E 004°50'0 0.1
2014-Oct-21 06:22N 53°01' E 004°50'0 0.0
2014-Oct-21 05:31N 53°01' E 004°50'0 0.0
2014-Oct-21 04:25N 53°01' E 004°50'0 0.0
2014-Oct-21 03:25N 53°01' E 004°50'0 0.0
2014-Oct-21 02:25N 53°01' E 004°50'0 0.0
2014-Oct-21 01:28N 53°01' E 004°50'0 0.0
2014-Oct-21 00:28N 53°01' E 004°50'0 0.2
2014-Oct-20 23:31N 53°01' E 004°50'0 0.0
2014-Oct-20 22:31N 53°01' E 004°50'0 0.0
2014-Oct-20 21:28N 53°01' E 004°50'0 0.0
2014-Oct-20 20:31N 53°01' E 004°50'0 0.0
2014-Oct-20 19:28N 53°01' E 004°50'0 0.1
2014-Oct-20 18:31N 53°01' E 004°50'0 0.1
2014-Oct-20 17:31N 53°01' E 004°50'0 0.0
2014-Oct-20 16:31N 53°01' E 004°50'0 0.0
2014-Oct-20 15:22N 53°01' E 004°50'0 0.0
2014-Oct-20 14:25N 53°01' E 004°50'0 0.0
2014-Oct-20 13:25N 53°01' E 004°50'0 0.0
2014-Oct-20 12:25N 53°01' E 004°50'1 0.4
2014-Oct-20 10:33N 53°01' E 004°49'  
2014-Oct-15 19:33N 52°58' E 004°47'7 7.1
2014-Oct-15 18:32N 52°53' E 004°38'1010.4
2014-Oct-15 17:33N 52°47' E 004°25'80 7.9
2014-Oct-15 07:23N 51°36' E 003°24'911.5
2014-Oct-15 06:33N 51°27' E 003°31'8 8.4
2014-Oct-15 05:33N 51°23' E 003°43'8 7.6
2014-Oct-15 04:31N 51°22' E 003°56'4 4.6
2014-Oct-15 03:34N 51°24' E 004°02'7 6.7
2014-Oct-15 02:33N 51°23' E 004°13'4 3.5
2014-Oct-15 01:32N 51°21' E 004°17'0 0.3
2014-Oct-15 00:33N 51°21' E 004°18'  
Track history (hours):
 
Tides and Currents Weather Stations Pressure Air Temp Water Temp Dewpoint Dewpoint Depression Visibility Wind Speed Wind Dir Waves Ship Positions

Northsea Beta

Last reported at 2014-Oct-25 00:24 UTC. Time now 2014-Oct-25 00:48 UTC.
Position N 51°53' E 004°16'.

Length 110 m; draft 5.2 m.

Type: Tanker. MMSI: 248970000.

Date/timePositionNaut miles runAvg speedWind from/ knotsBaromVisibWave heightAir tempDewpointWater temp
2014-Oct-25 00:24N 51°53' E 004°16'0 0.0
2014-Oct-24 23:34N 51°53' E 004°16'0 0.4
2014-Oct-24 22:34N 51°53' E 004°17'5 5.4
2014-Oct-24 21:33N 51°57' E 004°10'9 9.1
2014-Oct-24 20:33N 52°00' E 003°57'8 8.2
2014-Oct-24 19:32N 52°05' E 003°46'1211.2
2014-Oct-24 18:30N 52°17' E 003°47'34 8.7
2014-Oct-24 14:33N 52°43' E 004°23'14 9.5
2014-Oct-24 13:07N 52°54' E 004°38'610.0
2014-Oct-24 12:33N 52°58' E 004°43'5 2.6
2014-Oct-24 10:31N 53°01' E 004°50'0 0.1
2014-Oct-24 09:31N 53°01' E 004°50'0 0.1
2014-Oct-24 08:31N 53°01' E 004°50'0 0.0
2014-Oct-24 07:31N 53°01' E 004°50'0 0.0
2014-Oct-24 06:22N 53°01' E 004°50'0 0.0
2014-Oct-24 05:25N 53°01' E 004°50'0 0.0
2014-Oct-24 04:25N 53°01' E 004°50'0 0.0
2014-Oct-24 03:25N 53°01' E 004°50'0 0.0
2014-Oct-24 02:25N 53°01' E 004°50'0 0.1
2014-Oct-24 01:25N 53°01' E 004°50'0 0.0
2014-Oct-24 00:28N 53°01' E 004°50'0 0.0
2014-Oct-23 23:28N 53°01' E 004°50'0 0.0
2014-Oct-23 22:16N 53°01' E 004°50'0 0.1
2014-Oct-23 21:31N 53°01' E 004°50'0 0.1
2014-Oct-23 20:28N 53°01' E 004°50'0 0.0
2014-Oct-23 19:31N 53°01' E 004°50'0 0.0
2014-Oct-23 18:31N 53°01' E 004°50'0 0.0
2014-Oct-23 17:31N 53°01' E 004°50'0 0.0
2014-Oct-23 16:31N 53°01' E 004°50'0 0.0
2014-Oct-23 15:22N 53°01' E 004°50'0 0.0
2014-Oct-23 14:22N 53°01' E 004°50'0 0.1
2014-Oct-23 11:13N 53°01' E 004°50'0 0.1
2014-Oct-23 08:28N 53°01' E 004°50'0 0.0
2014-Oct-23 07:31N 53°01' E 004°50'0 0.0
2014-Oct-23 06:28N 53°01' E 004°50'0 0.0
2014-Oct-23 05:31N 53°01' E 004°50'0 0.0
2014-Oct-23 04:31N 53°01' E 004°50'0 0.0
2014-Oct-23 03:31N 53°01' E 004°50'0 0.0
2014-Oct-23 02:31N 53°01' E 004°50'0 0.1
2014-Oct-23 01:19N 53°01' E 004°50'0 0.0
2014-Oct-23 00:22N 53°01' E 004°50'0 0.0
2014-Oct-22 23:22N 53°01' E 004°50'0 0.0
2014-Oct-22 21:28N 53°01' E 004°50'0 0.0
2014-Oct-22 20:28N 53°01' E 004°50'0 0.0
2014-Oct-22 19:28N 53°01' E 004°50'0 0.1
2014-Oct-22 18:31N 53°01' E 004°50'0 0.1
2014-Oct-22 17:28N 53°01' E 004°50'0 0.0
2014-Oct-22 16:31N 53°01' E 004°50'0 0.0
2014-Oct-22 15:31N 53°01' E 004°50'0 0.1
2014-Oct-22 14:28N 53°01' E 004°50'0 0.1
2014-Oct-22 13:04N 53°01' E 004°50'0 0.0
2014-Oct-22 12:31N 53°01' E 004°50'0 0.0
2014-Oct-22 11:31N 53°01' E 004°50'0 0.0
2014-Oct-22 10:22N 53°01' E 004°50'0 0.0
2014-Oct-22 09:22N 53°01' E 004°50'0 0.0
2014-Oct-22 08:25N 53°01' E 004°50'0 0.0
2014-Oct-22 07:25N 53°01' E 004°50'0 0.1
2014-Oct-22 06:25N 53°01' E 004°50'0 0.1
2014-Oct-22 05:25N 53°01' E 004°50'0 0.0
2014-Oct-22 04:28N 53°01' E 004°50'0 0.0
2014-Oct-22 03:31N 53°01' E 004°50'0 0.0
2014-Oct-22 02:31N 53°01' E 004°50'0 0.1
2014-Oct-22 01:31N 53°01' E 004°50'0 0.0
2014-Oct-22 00:28N 53°01' E 004°50'0 0.0
2014-Oct-21 23:31N 53°01' E 004°50'0 0.0
2014-Oct-21 22:31N 53°01' E 004°50'0 0.0
2014-Oct-21 21:31N 53°01' E 004°50'0 0.0
2014-Oct-21 20:22N 53°01' E 004°50'0 0.0
2014-Oct-21 19:25N 53°01' E 004°50'0 0.0
2014-Oct-21 18:25N 53°01' E 004°50'0 0.1
2014-Oct-21 17:25N 53°01' E 004°50'0 0.0
2014-Oct-21 16:28N 53°01' E 004°50'0 0.0
2014-Oct-21 15:28N 53°01' E 004°50'0 0.0
2014-Oct-21 14:28N 53°01' E 004°50'0 0.0
2014-Oct-21 13:31N 53°01' E 004°50'0 0.0
2014-Oct-21 12:31N 53°01' E 004°50'0 0.0
2014-Oct-21 11:31N 53°01' E 004°50'0 0.1
2014-Oct-21 10:13N 53°01' E 004°50'0 0.0
2014-Oct-21 09:31N 53°01' E 004°50'0 0.1
2014-Oct-21 08:16N 53°01' E 004°50'0 0.1
2014-Oct-21 07:31N 53°01' E 004°50'0 0.1
2014-Oct-21 06:22N 53°01' E 004°50'0 0.0
2014-Oct-21 05:31N 53°01' E 004°50'0 0.0
2014-Oct-21 04:25N 53°01' E 004°50'0 0.0
2014-Oct-21 03:25N 53°01' E 004°50'0 0.0
2014-Oct-21 02:25N 53°01' E 004°50'0 0.0
2014-Oct-21 01:28N 53°01' E 004°50'0 0.0
2014-Oct-21 00:28N 53°01' E 004°50'0 0.2
2014-Oct-20 23:31N 53°01' E 004°50'0 0.0
2014-Oct-20 22:31N 53°01' E 004°50'0 0.0
2014-Oct-20 21:28N 53°01' E 004°50'0 0.0
2014-Oct-20 20:31N 53°01' E 004°50'0 0.0
2014-Oct-20 19:28N 53°01' E 004°50'0 0.1
2014-Oct-20 18:31N 53°01' E 004°50'0 0.1
2014-Oct-20 17:31N 53°01' E 004°50'0 0.0
2014-Oct-20 16:31N 53°01' E 004°50'0 0.0
2014-Oct-20 15:22N 53°01' E 004°50'0 0.0
2014-Oct-20 14:25N 53°01' E 004°50'0 0.0
2014-Oct-20 13:25N 53°01' E 004°50'0 0.0
2014-Oct-20 12:25N 53°01' E 004°50'1 0.4
2014-Oct-20 10:33N 53°01' E 004°49'  
2014-Oct-15 19:33N 52°58' E 004°47'7 7.1
2014-Oct-15 18:32N 52°53' E 004°38'1010.4
2014-Oct-15 17:33N 52°47' E 004°25'80 7.9
2014-Oct-15 07:23N 51°36' E 003°24'911.5
2014-Oct-15 06:33N 51°27' E 003°31'8 8.4
2014-Oct-15 05:33N 51°23' E 003°43'8 7.6
2014-Oct-15 04:31N 51°22' E 003°56'4 4.6
2014-Oct-15 03:34N 51°24' E 004°02'7 6.7
2014-Oct-15 02:33N 51°23' E 004°13'4 3.5
2014-Oct-15 01:32N 51°21' E 004°17'0 0.3
2014-Oct-15 00:33N 51°21' E 004°18'  

Dump ship's entire track history